Weather History for KJAC - August, 2013

Change the Weather History Date:

Wednesday, August 21, 2013

  Actual Average Record
Temperature  
Mean Temperature 64 °F -  
Max Temperature 78 °F 77 °F 87 °F (2010)
Min Temperature 51 °F 39 °F 26 °F (1964)
Growing Degree Days 14 (Base 50)    
Moisture  
Dew Point 47 °F    
Average Humidity 55    
Maximum Humidity 88    
Minimum Humidity 32    
Precipitation  
Precipitation 0.00 in - - ()
Sea Level Pressure  
Sea Level Pressure 30.27 in    
Wind  
Wind Speed 10 mph (NNW)    
Max Wind Speed 29 mph    
Max Gust Speed 34 mph    
Visibility 10 miles    
Events      
Averages and records for this station are not official NWS values.
T = Trace of Precipitation, MM = Missing Value Source: NWS Daily Summary

Daily Weather History Graph

Daily Weather History Graph

Search for Another Location

Airport or City:

Trip Planner

Search our weather history database for the weather conditions in past years. The results will help you decide how hot, cold, wet, or windy it might be!

Date:

Astronomy

Aug. 21, 2013 Rise Set
Actual Time 6:34 AM MDT 8:16 PM MDT
Civil Twilight 6:04 AM MDT 8:46 PM MDT
Nautical Twilight 5:27 AM MDT 9:23 PM MDT
Astronomical Twilight 4:47 AM MDT 10:03 PM MDT
Moon 8:22 PM MDT (8/21) 7:22 AM MDT (8/21)
Length of Visible Light 14h 42m
Length of Day
13h 41m
Full, 99% of the Moon is Illuminated
Aug 21
Full
Aug 28
Last Quarter
Sep 5
New
Sep 12
First Quarter
Sep 19
Full

Hourly Weather History & Observations

Time (MDT) Temp. Dew Point Humidity Pressure Visibility Wind Dir Wind Speed Gust Speed Precip Events Conditions
6:52 AM 51.8 °F 39.2 °F 62% 30.26 in 10.0 mi North 6.9 mph - N/A   Scattered Clouds
7:55 AM 53.6 °F 39.2 °F 58% 30.29 in 10.0 mi North 4.6 mph - N/A   Clear
8:54 AM 59.0 °F 42.8 °F 55% 30.29 in 10.0 mi North 3.5 mph - N/A   Clear
9:59 AM 66.2 °F 42.8 °F 43% 30.29 in 10.0 mi South 4.6 mph - N/A   Clear
10:51 AM 69.8 °F 42.8 °F 38% 30.29 in 10.0 mi Calm Calm - N/A   Partly Cloudy
11:51 AM 69.8 °F 46.4 °F 43% 30.29 in 10.0 mi SW 4.6 mph - N/A   Scattered Clouds
12:55 PM 75.2 °F 46.4 °F 36% 30.28 in 10.0 mi South 15.0 mph 20.7 mph N/A   Partly Cloudy
1:54 PM 75.2 °F 46.4 °F 36% 30.27 in 10.0 mi South 13.8 mph 20.7 mph N/A   Partly Cloudy
2:51 PM 78.8 °F 46.4 °F 32% 30.24 in 10.0 mi South 9.2 mph - N/A   Scattered Clouds
3:52 PM 77.0 °F 44.6 °F 32% 30.22 in 10.0 mi WSW 8.1 mph - N/A   Mostly Cloudy
4:53 PM 75.2 °F 44.6 °F 34% 30.20 in 10.0 mi WSW 9.2 mph - N/A   Clear
5:51 PM 75.2 °F 46.4 °F 36% 30.22 in 10.0 mi NNW 17.3 mph 23.0 mph N/A   Scattered Clouds
6:51 PM 69.8 °F 46.4 °F 43% 30.26 in 10.0 mi North 28.8 mph 34.5 mph N/A   Mostly Cloudy
7:01 PM 64.4 °F 50.0 °F 59% 30.27 in 10.0 mi North 19.6 mph 28.8 mph N/A   Mostly Cloudy
7:51 PM 64.4 °F 50.0 °F 59% 30.27 in 10.0 mi North 19.6 mph 28.8 mph N/A   Mostly Cloudy
8:51 PM 62.6 °F 50.0 °F 63% 30.28 in 10.0 mi North 17.3 mph 23.0 mph N/A   Scattered Clouds
8:55 PM 62.6 °F 50.0 °F 63% 30.28 in 10.0 mi North 18.4 mph - N/A   Partly Cloudy
9:15 PM 62.6 °F 51.8 °F 68% 30.29 in 10.0 mi North 18.4 mph - N/A   Partly Cloudy
9:35 PM 60.8 °F 51.8 °F 72% 30.30 in 10.0 mi North 16.1 mph 21.9 mph N/A   Mostly Cloudy
10:15 PM 60.8 °F 51.8 °F 72% 30.30 in 10.0 mi North 13.8 mph - N/A   Overcast
10:35 PM 62.6 °F 50.0 °F 63% 30.30 in 10.0 mi North 17.3 mph - N/A   Overcast
11:15 PM 60.8 °F 51.8 °F 72% 30.30 in 10.0 mi NNE 13.8 mph - N/A   Overcast
11:35 PM 57.2 °F 53.6 °F 88% 30.30 in 10.0 mi North 11.5 mph - N/A   Overcast
11:55 PM 57.2 °F 53.6 °F 88% 30.30 in 10.0 mi North 8.1 mph - N/A   Overcast